Jefferson, NC

5:47 PM EST on December 07, 2019 (GMT -0500)
Ashe County

Weather History for KGEV - May, 2019

Change the Weather History Date:

Thursday, May 9, 2019

  Actual Average Record
Temperature  
Mean Temperature 64 °F -  
Max Temperature 69 °F 66 °F 80 °F (2003)
Min Temperature 58 °F 42 °F 27 °F (1976)
Degree Days  
Heating Degree Days 2    
Growing Degree Days 14 (Base 50)    
Moisture  
Dew Point 57 °F    
Average Humidity 83    
Maximum Humidity 100    
Minimum Humidity 58    
Precipitation  
Precipitation 0.00 in - - ()
Sea Level Pressure  
Sea Level Pressure 30.16 in    
Wind  
Wind Speed 4 mph (SSE)    
Max Wind Speed 10 mph    
Max Gust Speed 20 mph    
Visibility 10 miles    
Events Rain    
Averages and records for this station are not official NWS values.
T = Trace of Precipitation, MM = Missing Value Source: NWS Daily Summary

Daily Weather History Graph

Daily Weather History Graph

Search for Another Location

Airport or City:

Astronomy

May. 09, 2019 Rise Set
Actual Time 6:24 AM EDT 8:20 PM EDT
Civil Twilight 5:56 AM EDT 8:48 PM EDT
Nautical Twilight 5:21 AM EDT 9:23 PM EDT
Astronomical Twilight 4:45 AM EDT 9:59 PM EDT
Moon 10:20 AM EDT (5/9) 12:15 AM EDT (5/9)
Length of Visible Light 14h 52m
Length of Day
13h 56m
Waxing Crescent, 24% of the Moon is Illuminated
May 9
Waxing Crescent
May 11
First Quarter
May 18
Full
May 26
Last Quarter
Jun 3
New

Hourly Weather History & Observations

Time (EDT) Temp. Dew Point Humidity Pressure Visibility Wind Dir Wind Speed Gust Speed Precip Events Conditions
12:05 AM 59.9 °F 58.1 °F 94% 30.19 in 10.0 mi Calm Calm - N/A   Scattered Clouds
12:25 AM 59.5 °F 58.3 °F 96% 30.19 in 10.0 mi Calm Calm - N/A   Clear
12:45 AM 59.9 °F 58.3 °F 94% 30.19 in 10.0 mi Calm Calm - N/A   Mostly Cloudy
1:05 AM 60.8 °F 58.5 °F 92% 30.19 in 10.0 mi SSE 3.5 mph - N/A   Overcast
1:25 AM 60.8 °F 59.0 °F 94% 30.18 in 10.0 mi SSE 4.6 mph - N/A   Overcast
1:45 AM 60.8 °F 59.0 °F 94% 30.18 in 10.0 mi Calm Calm - N/A   Overcast
2:05 AM 60.8 °F 59.0 °F 94% 30.18 in 10.0 mi Calm Calm - N/A   Overcast
2:25 AM 60.1 °F 58.5 °F 94% 30.18 in 10.0 mi Calm Calm - N/A   Overcast
2:45 AM 60.8 °F 58.1 °F 91% 30.18 in 10.0 mi SSE 6.9 mph - N/A   Overcast
3:05 AM 60.1 °F 58.1 °F 93% 30.18 in 10.0 mi Calm Calm - N/A   Overcast
3:25 AM 59.9 °F 57.7 °F 93% 30.18 in 10.0 mi Calm Calm - N/A   Overcast
3:45 AM 59.9 °F 57.6 °F 92% 30.18 in 10.0 mi SSE 3.5 mph - N/A   Overcast
4:05 AM 59.9 °F 57.4 °F 91% 30.18 in 10.0 mi South 5.8 mph - N/A   Overcast
4:25 AM 59.7 °F 57.7 °F 93% 30.18 in 10.0 mi SSE 6.9 mph - N/A   Overcast
4:45 AM 59.5 °F 57.6 °F 93% 30.17 in 10.0 mi South 8.1 mph - N/A   Mostly Cloudy
5:05 AM 59.7 °F 57.7 °F 93% 30.17 in 10.0 mi South 5.8 mph - N/A   Mostly Cloudy
5:25 AM 59.9 °F 58.1 °F 94% 30.17 in 10.0 mi SSE 5.8 mph - N/A   Overcast
5:45 AM 59.7 °F 57.9 °F 94% 30.17 in 10.0 mi SSE 4.6 mph - N/A   Overcast
6:05 AM 59.5 °F 57.7 °F 94% 30.18 in 10.0 mi South 4.6 mph - N/A   Overcast
6:25 AM 59.2 °F 57.6 °F 94% 30.18 in 10.0 mi SSE 4.6 mph - N/A   Overcast
6:45 AM 59.0 °F 57.0 °F 93% 30.18 in 10.0 mi SSE 3.5 mph - N/A   Overcast
7:05 AM 58.1 °F 55.0 °F 90% 30.18 in 10.0 mi SSE 5.8 mph - N/A   Mostly Cloudy
7:25 AM 58.5 °F 54.9 °F 88% 30.19 in 10.0 mi South 4.6 mph - N/A   Mostly Cloudy
7:45 AM 58.6 °F 55.0 °F 88% 30.19 in 10.0 mi South 3.5 mph - N/A   Overcast
8:05 AM 59.5 °F 55.4 °F 86% 30.18 in 10.0 mi South 5.8 mph - N/A   Mostly Cloudy
8:25 AM 60.1 °F 55.4 °F 85% 30.17 in 10.0 mi SSE 5.8 mph - N/A   Mostly Cloudy
8:45 AM 60.1 °F 54.3 °F 81% 30.17 in 10.0 mi SSE 5.8 mph - N/A   Mostly Cloudy
9:05 AM 60.8 °F 54.1 °F 79% 30.17 in 10.0 mi SSE 4.6 mph - N/A   Overcast
9:25 AM 60.8 °F 54.7 °F 80% 30.17 in 10.0 mi SSE 6.9 mph - N/A   Overcast
9:45 AM 61.2 °F 54.9 °F 80% 30.17 in 10.0 mi South 6.9 mph 17.3 mph N/A   Overcast
10:05 AM 62.6 °F 54.7 °F 75% 30.16 in 10.0 mi SSE 4.6 mph - N/A   Overcast
10:25 AM 63.5 °F 55.0 °F 74% 30.17 in 10.0 mi South 6.9 mph - N/A   Overcast
10:45 AM 63.5 °F 55.2 °F 74% 30.17 in 10.0 mi South 8.1 mph - N/A   Overcast
11:05 AM 64.6 °F 55.2 °F 72% 30.18 in 10.0 mi South 5.8 mph - N/A   Overcast
11:25 AM 64.2 °F 53.8 °F 69% 30.18 in 10.0 mi SSE 9.2 mph 17.3 mph N/A   Mostly Cloudy
11:45 AM 66.2 °F 55.8 °F 69% 30.18 in 10.0 mi SSE 8.1 mph - N/A   Scattered Clouds
12:25 PM 67.5 °F 55.4 °F 65% 30.19 in 10.0 mi SSE 4.6 mph 17.3 mph N/A   Scattered Clouds
12:45 PM 68.2 °F 54.7 °F 62% 30.19 in 10.0 mi SSE 6.9 mph 19.6 mph N/A   Mostly Cloudy
1:05 PM 67.8 °F 55.2 °F 64% 30.19 in 10.0 mi SSE 6.9 mph - N/A   Overcast
1:25 PM 67.1 °F 55.0 °F 65% 30.18 in 10.0 mi SE 4.6 mph - N/A   Overcast
1:45 PM 66.4 °F 54.9 °F 66% 30.17 in 10.0 mi SSE 9.2 mph 17.3 mph N/A   Overcast
2:05 PM 68.5 °F 56.1 °F 64% 30.17 in 10.0 mi South 10.4 mph - N/A   Overcast
2:25 PM 68.5 °F 55.8 °F 64% 30.17 in 10.0 mi South 6.9 mph - N/A   Overcast
3:05 PM 68.2 °F 54.9 °F 62% 30.16 in 10.0 mi SE 5.8 mph - N/A   Overcast
3:25 PM 67.5 °F 53.6 °F 61% 30.15 in 10.0 mi SE 6.9 mph - N/A   Mostly Cloudy
3:45 PM 69.4 °F 54.0 °F 58% 30.14 in 10.0 mi SSE 4.6 mph - N/A   Mostly Cloudy
4:05 PM 67.6 °F 52.9 °F 59% 30.14 in 10.0 mi South 9.2 mph - N/A   Mostly Cloudy
4:25 PM 67.5 °F 53.6 °F 61% 30.13 in 10.0 mi SSE 6.9 mph - N/A   Mostly Cloudy
4:45 PM 67.5 °F 54.3 °F 63% 30.12 in 10.0 mi SE 8.1 mph - N/A   Mostly Cloudy
5:05 PM 68.7 °F 56.7 °F 65% 30.13 in 10.0 mi SSE 6.9 mph - N/A   Mostly Cloudy
5:25 PM 66.7 °F 56.1 °F 69% 30.13 in 10.0 mi SSE 5.8 mph - N/A   Overcast
5:45 PM 65.8 °F 57.0 °F 73% 30.13 in 10.0 mi SSE 6.9 mph - N/A   Overcast
6:05 PM 65.1 °F 57.2 °F 75% 30.13 in 10.0 mi SSE 5.8 mph - N/A   Mostly Cloudy
6:25 PM 62.6 °F 59.0 °F 88% 30.13 in 10.0 mi SSE 4.6 mph - N/A Rain Light Rain
6:45 PM 61.7 °F 59.4 °F 92% 30.13 in 10.0 mi SSE 4.6 mph - N/A   Overcast
7:05 PM 62.1 °F 59.4 °F 91% 30.13 in 10.0 mi SSE 4.6 mph - N/A   Mostly Cloudy
7:25 PM 62.1 °F 57.9 °F 86% 30.12 in 10.0 mi SSE 5.8 mph - N/A   Overcast
7:45 PM 61.7 °F 57.9 °F 87% 30.12 in 10.0 mi SSE 5.8 mph - N/A   Overcast
8:05 PM 61.0 °F 57.7 °F 89% 30.12 in 10.0 mi SE 6.9 mph - N/A   Overcast
8:25 PM 60.4 °F 57.6 °F 90% 30.12 in 10.0 mi SSE 4.6 mph - N/A   Overcast
8:45 PM 59.9 °F 57.6 °F 92% 30.12 in 10.0 mi SSE 4.6 mph - N/A   Overcast
9:05 PM 59.9 °F 57.6 °F 92% 30.12 in 10.0 mi SE 5.8 mph - N/A   Overcast
9:25 PM 59.4 °F 57.6 °F 94% 30.12 in 10.0 mi SSE 8.1 mph - N/A Rain Light Rain
9:45 PM 59.0 °F 57.7 °F 96% 30.12 in 10.0 mi SSE 3.5 mph - N/A   Overcast
10:05 PM 58.6 °F 57.7 °F 97% 30.13 in 10.0 mi SSE 5.8 mph - N/A   Light Drizzle
10:45 PM 58.6 °F 58.1 °F 98% 30.14 in 7.0 mi SSE 4.6 mph - N/A Rain Rain
11:05 PM 58.3 °F 58.1 °F 99% 30.15 in 4.0 mi SSE 4.6 mph - N/A   Heavy Drizzle
11:25 PM 58.3 °F 58.3 °F 100% 30.13 in 3.0 mi SSE 4.6 mph - N/A   Drizzle
11:45 PM 58.1 °F 58.1 °F 100% 30.13 in 4.0 mi South 3.5 mph - N/A   Drizzle